Regional Weather Roundup
Issued by NWS

Home | Current Version | Previous Version | Graphics & Text | Print | Product List | Glossary On
Versions: 1 2 3 4 5 6 7 8 9 10 11 12 13 14 15 16 17 18 19 20 21 22 23 24 25 26 27 28 29 30 31 32 33 34 35 36 37 38 39 40 41 42 43 44 45 46 47 48 49 50
000
ASUS43 KFSD 230210
RWRSD

WEATHER ROUNDUP FOR SOUTH DAKOTA
NATIONAL WEATHER SERVICE SIOUX FALLS SD
800 PM CST SUN JAN 22 2017

NOTE: "FAIR" INDICATES FEW OR NO CLOUDS BELOW 12,000 FEET WITH NO
SIGNIFICANT WEATHER AND/OR OBSTRUCTIONS TO VISIBILITY.


SDZ001>005-009-010-012>017-230300-
NORTHWEST AND NORTH CENTRAL SOUTH DAKOTA

CITY           SKY/WX    TMP DP  RH WIND       PRES   REMARKS
BUFFALO          N/A     18  16  92 CALM      29.75F
FAITH            N/A     17  17 100 N6        29.85S WCI   9
MOBRIDGE       CLOUDY    30  24  78 NW13      29.84S WCI  20
$$

SDZ012>016-024>037-041>051-057-063-072>074-230300-
SOUTHWEST AND SOUTH CENTRAL SOUTH DAKOTA

CITY           SKY/WX    TMP DP  RH WIND       PRES   REMARKS
RAPID CTY ARPT CLEAR     27  21  78 CALM      29.83F
PIERRE         CLOUDY    28  24  85 W5        29.88F WCI  23
CUSTER         CLEAR     25  14  63 SW3       29.80S
ELLSWORTH AFB  CLEAR     32  23  69 SE5       29.82F WCI  27
PHILIP         CLEAR     20  18  92 E6        29.89R WCI  12
PINE RIDGE     CLEAR     25  21  85 NE3       29.86R
SPEARFISH      FAIR      32  18  55 SW14      29.80F WCI  22
WINNER         FAIR      24  21  88 W3        29.90S
$$

SDZ004>011-016>023-039-040-230300-
NORTHEAST SOUTH DAKOTA

CITY           SKY/WX    TMP DP  RH WIND       PRES   REMARKS
ABERDEEN       CLOUDY    32  26  78 W13       29.85S WCI  22
WATERTOWN      CLOUDY    29  27  92 W10       29.81R WCI  20
BROOKINGS      CLOUDY    29  27  92 NW13      29.82R WCI  19
SISSETON         N/A     34  31  88 NW14      29.80R WCI  25
$$

SDZ017-020-022-023-036>040-048>070-230300-
SOUTHEAST SOUTH DAKOTA

CITY           SKY/WX    TMP DP  RH WIND       PRES   REMARKS
SIOUX FALLS    CLOUDY    31  28  89 NW15G22   29.85R WCI  20
HURON          CLOUDY    30  27  88 NW14      29.88R WCI  19
CHAMBERLAIN    CLOUDY    31  28  90 NW6       29.90S WCI  25
MITCHELL       CLOUDY    32  28  85 NW10      29.89S WCI  24
YANKTON        MOCLDY    28  25  86 NW15      29.88S WCI  17
$$

ABBREVIATIONS USED IN REMARKS
   TC - TEMPERATURE IN CELSIUS
  WCI - WIND CHILL INDEX
   HX - HEAT INDEX
  VSB - VISIBILITY




USA.gov is the U.S. government's official web portal to all federal, state and local government web resources and services.